[[{"header":{"parameterUnit":"m.s-1","parameterCategory":1,"la1":30.2991,"la2":30.254,"lo1":-89.0895,"lo2":-89.0444,"dy":0.0017,"dx":0.0017,"nx":28,"ny":28,"refTime":"2026-03-05T03:00:00:Z","depth":0,"parameterNumber":2,"parameterNumberName":"U-component_of_WINDS"},"data":[0,0,0,0,0,0,0,0,0,0,0,0,0,0,0,0,0,0,0,0,0,0,0,0,0,0,0,0,0,0,0,0,0,0,0,0,0,0,0,0,0,0,0,0,0,0,0,0,0,0,0,0,0,0,0,0,0,0,-4.3599,-4.36,0,-4.3667,-4.3668,-4.3669,-4.3629,-4.3627,-4.3625,-4.3623,-4.3691,-4.3694,-4.3698,0,0,0,0,0,0,0,0,0,0,0,0,0,-4.3433,-4.3436,-4.3599,-4.36,-4.3601,-4.3667,-4.3668,-4.3669,-4.3629,-4.3627,-4.3625,-4.3622,-4.369,-4.3694,-4.3698,0,0,0,0,0,0,0,0,0,0,0,0,0,-4.3503,-4.3437,-4.3599,-4.3589,-4.3589,-4.3667,-4.3668,-4.3669,-4.363,-4.3627,-4.3624,-4.3621,-4.3688,-4.3693,-4.3699,-4.379,0,0,-4.3715,-4.3717,0,0,0,0,0,0,0,0,-4.3499,-4.3509,-4.3589,-4.359,-4.359,-4.3637,-4.3634,-4.3709,-4.3631,-4.3614,-4.3623,-4.362,-4.3675,-4.3681,-4.37,-4.3793,-4.3796,-4.3716,-4.3719,-4.3721,-4.3723,0,0,0,0,0,0,0,-4.3494,-4.3506,-4.3626,-4.3591,-4.3591,-4.3581,-4.3587,-4.3648,-4.366,-4.3615,-4.3613,-4.3621,-4.3674,-4.3695,-4.3702,-4.3797,-4.3715,-4.372,-4.3724,-4.3726,-4.3968,-4.3971,0,0,0,0,0,0,-4.3491,-4.3502,-4.3624,-4.3628,-4.3537,-4.3586,-4.3594,-4.3624,-4.3659,-4.3662,-4.3624,-4.3619,-4.3687,-4.3695,-4.3704,-4.3812,-4.3721,-4.3726,-4.3729,-4.3965,-4.3968,-4.3972,0,0,0,0,0,0,-4.3487,-4.3502,-4.3621,-4.3565,-4.3579,-4.3592,-4.3627,-4.3627,-4.3648,-4.3665,-4.3667,-4.3643,-4.3685,-4.3696,-4.3769,-4.3814,-4.3729,-4.3733,-4.3961,-4.3966,-4.397,-4.403,0,0,0,0,0,0,-4.3483,-4.3501,-4.3535,-4.3566,-4.3582,-4.3685,-4.363,-4.3631,-4.3658,-4.3652,-4.3684,-4.3686,-4.3684,-4.3761,-4.3774,-4.382,-4.3738,-4.3957,-4.3963,-4.3969,-4.4024,-4.4036,-4.4046,0,0,0,0,0,-4.3477,-4.3549,-4.3537,-4.3552,-4.3626,-4.3688,-4.3697,-4.3694,-4.3662,-4.3696,-4.3708,-4.3685,-4.3808,-4.3769,-4.3783,-4.3831,-4.3954,-4.3961,-4.3968,-4.4018,-4.4033,-4.4046,0,0,0,0,0,0,-4.3522,-4.3552,-4.354,-4.3624,-4.3654,-4.3681,-4.3724,-4.371,-4.3748,-4.3742,-4.3735,-4.3743,-4.3818,-4.3832,-4.3789,-4.3921,-4.3875,-4.3886,-4.3909,-4.3923,-4.3934,-4.3928,-4.3742,0,0,0,0,0,-4.3542,-4.3591,-4.3614,-4.3686,-4.3702,-4.3711,-4.3738,-4.3733,-4.3763,-4.3775,-4.3792,-4.3821,-4.3866,-4.3896,-4.3938,-4.4027,-4.4032,-4.4067,-4.4078,-4.4087,-4.4096,-4.4143,-4.4158,-4.3996,-4.3996,-4.3995,0,0,-4.3583,-4.3606,-4.3636,-4.3696,-4.3718,-4.3768,-4.3722,-4.3776,-4.3813,-4.3783,-4.3852,-4.3867,-4.3899,-4.398,-4.4016,-4.3994,-4.4143,-4.4097,-4.4104,-4.4107,-4.4152,-4.4168,-4.4181,-4.4,-4.4,-4.3999,0,0,-4.3683,-4.3706,-4.3768,-4.3792,-4.3828,-4.3834,-4.3849,-4.3879,-4.3887,-4.3958,-4.3937,-4.398,-4.4058,-4.4082,-4.4105,-4.4217,-4.4198,-4.4232,-4.4289,-4.4336,-4.4349,-4.436,-4.4399,-4.4413,-4.424,-4.424,-4.4241,0,-4.3729,-4.3804,-4.3802,-4.3858,-4.3885,-4.3863,-4.3926,-4.3949,-4.3996,-4.4015,-4.3989,-4.4087,-4.4108,-4.4194,-4.4222,-4.4241,-4.4258,-4.4226,-4.4347,-4.4359,-4.4369,-4.4406,-4.4421,-4.4244,-4.4244,-4.4243,-4.4243,0,-4.3859,-4.3911,-4.3957,-4.4004,-4.4037,-4.4096,-4.4103,-4.4136,-4.4129,-4.4138,-4.421,-4.4234,-4.4281,-4.4302,-4.4296,-4.4388,-4.4373,-4.4348,-4.4301,-4.4388,-4.4423,-4.4437,-4.425,-4.4248,-4.4247,-4.4246,0,0,-4.3985,-4.4033,-4.405,-4.4071,-4.411,-4.415,-4.4209,-4.4257,-4.4284,-4.4319,-4.4367,-4.4435,-4.4413,-4.4439,-4.4435,-4.4476,-4.4563,-4.4446,-4.4447,-4.4466,-4.4665,-4.4682,-4.4698,-4.4552,-4.4554,-4.4557,-4.4662,0,-4.4087,-4.419,-4.4191,-4.4286,-4.4334,-4.4315,-4.4367,-4.4396,-4.4406,-4.4449,-4.446,-4.4508,-4.4475,-4.4491,-4.4531,-4.4544,-4.4603,-4.4537,-4.4595,-4.4597,-4.4585,-4.4717,-4.4734,-4.4832,-4.4676,-4.4678,-4.468,0,-4.4217,-4.4257,-4.4357,-4.439,-4.441,-4.4456,-4.45,-4.4542,-4.4575,-4.458,-4.461,-4.4601,-4.4661,-4.4615,-4.4697,-4.4652,-4.4677,-4.4687,-4.4691,-4.4694,-4.4642,-4.4721,-4.4863,-4.4877,-4.4701,-4.4699,-4.4698,0,-4.4298,-4.4377,-4.4447,-4.4466,-4.4507,-4.4539,-4.4558,-4.4588,-4.4617,-4.4656,-4.4675,-4.472,-4.4744,-4.4779,-4.4782,-4.4749,-4.4865,-4.4819,-4.4869,-4.4869,-4.4892,-4.489,-4.5038,-4.4912,-4.4912,-4.4912,-4.4911,0,-4.4409,-4.4471,-4.4484,-4.4526,-4.4595,-4.4597,-4.4664,-4.468,-4.4708,-4.4753,-4.474,-4.4783,-4.4786,-4.483,-4.4833,-4.49,-4.4912,-4.4916,-4.4916,-4.4916,-4.4915,-4.493,-4.4922,-4.4916,-4.4915,-4.4914,-4.4913,0,-4.4509,-4.4521,-4.4596,-4.4629,-4.4639,-4.4688,-4.4716,-4.4757,-4.4768,-4.4825,-4.4839,-4.4855,-4.4906,-4.4914,-4.4974,-4.4976,-4.5056,-4.505,-4.5045,-4.5043,-4.5092,-4.5087,-4.5252,-4.5274,-4.5136,-4.5138,-4.5139,0,-4.4578,-4.4625,-4.4664,-4.4694,-4.4715,-4.4763,-4.4793,-4.4797,-4.4829,-4.4872,-4.4907,-4.4958,-4.4998,-4.508,-4.5097,-4.5143,-4.5136,-4.5192,-4.5143,-4.5142,-4.5135,-4.5131,-4.5136,-4.52,-4.5201,-4.5203,-4.5204,0,-4.4699,-4.4703,-4.4747,-4.4794,-4.483,-4.4867,-4.4901,-4.4927,-4.4936,-4.4972,-4.5025,-4.5056,-4.5118,-4.5168,-4.5214,-4.5233,-4.5219,-4.522,-4.5233,-4.5232,-4.5227,-4.5229,-4.5068,-4.5215,-4.5214,-4.5213,-4.5212,-4.5212,-4.4784,-4.4825,-4.4859,-4.4909,-4.4936,-4.497,-4.501,-4.5027,-4.5071,-4.5122,-4.5123,-4.518,-4.5214,-4.5275,-4.5297,-4.5342,-4.5323,-4.5344,-4.5348,-4.5353,-4.5357,-4.5222,-4.535,-4.535,-4.535,-4.5349,-4.5349,0,-4.4902,-4.4924,-4.497,-4.502,-4.506,-4.5047,-4.5085,-4.5118,-4.517,-4.5202,-4.5243,-4.5304,-4.5353,-4.5375,-4.5423,-4.5455,-4.545,-4.5467,-4.5464,-4.5468,-4.5371,-4.5353,-4.5471,-4.5471,-4.547,-4.547,-4.547,-4.547,-4.4968,-4.5037,-4.5045,-4.5128,-4.5149,-4.5206,-4.5229,-4.526,-4.5286,-4.5356,-4.5397,-4.5411,-4.544,-4.5491,-4.5535,-4.554,-4.5557,-4.5577,-4.5579,-4.5487,-4.5475,-4.5463,-4.5446,-4.5581,-4.5582,-4.5672,-4.5673,-4.5674]},{"header":{"parameterUnit":"m.s-1","parameterCategory":1,"la1":30.2991,"la2":30.254,"lo1":-89.0895,"lo2":-89.0444,"dy":0.0017,"dx":0.0017,"nx":28,"ny":28,"refTime":"2026-03-05T03:00:00:Z","depth":0,"parameterNumber":3,"parameterNumberName":"V-component_of_WINDS"},"data":[0,0,0,0,0,0,0,0,0,0,0,0,0,0,0,0,0,0,0,0,0,0,0,0,0,0,0,0,0,0,0,0,0,0,0,0,0,0,0,0,0,0,0,0,0,0,0,0,0,0,0,0,0,0,0,0,0,0,2.0885,2.0886,0,2.0951,2.0951,2.0952,2.098,2.098,2.098,2.098,2.1046,2.1048,2.105,0,0,0,0,0,0,0,0,0,0,0,0,0,2.0786,2.0787,2.0885,2.0886,2.0887,2.0951,2.0951,2.0952,2.098,2.098,2.098,2.098,2.1045,2.1048,2.105,0,0,0,0,0,0,0,0,0,0,0,0,0,2.0838,2.0788,2.0885,2.0909,2.0911,2.095,2.0952,2.0953,2.098,2.098,2.098,2.098,2.1045,2.1047,2.105,2.107,0,0,2.1059,2.106,0,0,0,0,0,0,0,0,2.0835,2.0841,2.0904,2.0907,2.091,2.0957,2.0941,2.0992,2.0981,2.0954,2.098,2.098,2.1017,2.1022,2.1034,2.1074,2.1076,2.1059,2.1061,2.1062,2.1063,0,0,0,0,0,0,0,2.0831,2.0839,2.0911,2.0905,2.0909,2.0916,2.0923,2.0951,2.0985,2.0956,2.0959,2.0966,2.1018,2.1032,2.1036,2.1077,2.1059,2.1061,2.1063,2.1064,2.114,2.114,0,0,0,0,0,0,2.0824,2.0835,2.0909,2.0913,2.0871,2.0918,2.0926,2.0942,2.0985,2.0992,2.0966,2.0967,2.1027,2.1033,2.1038,2.1067,2.1062,2.1064,2.1066,2.114,2.114,2.114,0,0,0,0,0,0,2.0821,2.083,2.0906,2.0875,2.0885,2.092,2.0938,2.0944,2.0957,2.0993,2.0999,2.0973,2.1027,2.1035,2.1063,2.107,2.1066,2.1068,2.1139,2.114,2.114,2.1123,0,0,0,0,0,0,2.0818,2.0829,2.0836,2.0875,2.0887,2.0929,2.0938,2.0945,2.0962,2.0964,2.1001,2.1007,2.1027,2.1059,2.1066,2.1074,2.107,2.1139,2.1139,2.114,2.1123,2.1123,2.1123,0,0,0,0,0,2.0815,2.0828,2.0837,2.0845,2.0897,2.093,2.0937,2.096,2.0962,2.0971,2.0994,2.1006,2.1068,2.1062,2.107,2.1078,2.1138,2.1139,2.114,2.1123,2.1123,2.1123,0,0,0,0,0,0,2.0788,2.0833,2.0843,2.0869,2.0896,2.0934,2.0945,2.0959,2.0984,2.0985,2.1013,2.1021,2.1048,2.1066,2.1058,2.1102,2.1104,2.1107,2.1089,2.1089,2.1089,2.1084,2.1073,0,0,0,0,0,2.0786,2.0808,2.0847,2.0866,2.0879,2.091,2.0925,2.0941,2.0969,2.098,2.1006,2.1032,2.1058,2.1074,2.11,2.1126,2.1136,2.1136,2.1136,2.1136,2.1138,2.1156,2.1157,2.1143,2.1143,2.1143,0,0,2.078,2.0808,2.082,2.0862,2.0884,2.0908,2.0919,2.0943,2.0961,2.0984,2.1013,2.1033,2.1065,2.1093,2.1106,2.1109,2.1144,2.1137,2.1136,2.1138,2.1156,2.1158,2.1159,2.1144,2.1143,2.1143,0,0,2.0782,2.0805,2.0825,2.0847,2.0881,2.0903,2.0907,2.0945,2.0959,2.0989,2.1008,2.103,2.1073,2.1096,2.1113,2.1128,2.114,2.1135,2.1134,2.1151,2.1152,2.1153,2.116,2.1162,2.1137,2.1137,2.1137,0,2.0771,2.0807,2.0833,2.0857,2.0876,2.0899,2.092,2.0941,2.0981,2.0994,2.0996,2.1053,2.1076,2.1111,2.1115,2.1127,2.1135,2.1131,2.115,2.1151,2.1153,2.116,2.1162,2.1136,2.1136,2.1136,2.1136,0,2.0793,2.0818,2.083,2.087,2.089,2.0912,2.0942,2.096,2.0975,2.0996,2.1028,2.1057,2.109,2.1099,2.1113,2.1137,2.1138,2.1144,2.1148,2.1153,2.116,2.1163,2.1135,2.1135,2.1136,2.1136,0,0,2.0778,2.0834,2.0838,2.0858,2.0899,2.0919,2.0944,2.0977,2.0992,2.102,2.1042,2.108,2.1087,2.1107,2.1124,2.1139,2.1151,2.1144,2.1146,2.1146,2.1182,2.1177,2.118,2.116,2.1161,2.1161,2.118,0,2.0787,2.0832,2.0857,2.0892,2.0917,2.0941,2.0962,2.099,2.1011,2.1036,2.1059,2.1086,2.1093,2.1105,2.1121,2.1146,2.1159,2.1145,2.1182,2.1183,2.1174,2.1183,2.1177,2.1193,2.1182,2.1183,2.1183,0,2.0802,2.0831,2.0869,2.091,2.0921,2.094,2.0974,2.0997,2.103,2.1045,2.1068,2.1086,2.1114,2.1115,2.1155,2.1145,2.1162,2.1177,2.1178,2.1183,2.1183,2.1189,2.1199,2.1202,2.1187,2.1187,2.1187,0,2.079,2.0838,2.0868,2.0884,2.0931,2.0945,2.0965,2.0998,2.1018,2.1048,2.1061,2.1093,2.1111,2.1136,2.1163,2.1161,2.1201,2.1204,2.1215,2.1214,2.1222,2.1221,2.1236,2.1231,2.1231,2.1231,2.1231,0,2.0797,2.0819,2.0863,2.0881,2.0908,2.0938,2.0963,2.0986,2.1016,2.1039,2.1062,2.1083,2.1117,2.1144,2.1165,2.1196,2.1203,2.1217,2.1222,2.1215,2.1214,2.1227,2.1227,2.1232,2.1232,2.1232,2.1231,0,2.0787,2.0818,2.0852,2.0895,2.0907,2.0925,2.0962,2.0981,2.1005,2.1035,2.1043,2.108,2.1113,2.1142,2.1185,2.1199,2.1231,2.1238,2.122,2.1224,2.1233,2.1233,2.1257,2.1263,2.1253,2.1253,2.1253,0,2.079,2.0808,2.0855,2.0873,2.0894,2.0922,2.0943,2.0973,2.0994,2.1035,2.105,2.1084,2.1113,2.1164,2.1195,2.1229,2.1237,2.1243,2.1242,2.1235,2.1238,2.1237,2.124,2.1243,2.1243,2.1243,2.1243,0,2.0793,2.0808,2.0837,2.0872,2.0897,2.0926,2.0955,2.0969,2.1006,2.1028,2.1062,2.1085,2.113,2.1165,2.1202,2.1224,2.124,2.1243,2.1248,2.1241,2.1231,2.1238,2.1221,2.1242,2.1242,2.1242,2.1242,2.1242,2.0791,2.0809,2.0845,2.0878,2.0904,2.0932,2.0953,2.098,2.101,2.1049,2.1066,2.1101,2.1137,2.1189,2.1211,2.124,2.1243,2.1249,2.125,2.1252,2.1251,2.1226,2.1246,2.1246,2.1246,2.1246,2.1247,0,2.0796,2.0821,2.0851,2.0893,2.0919,2.0933,2.0967,2.0988,2.1019,2.1051,2.108,2.1121,2.1156,2.119,2.1227,2.1243,2.1252,2.1252,2.1251,2.1256,2.1246,2.1239,2.1245,2.1245,2.1245,2.1245,2.1245,2.1245,2.0801,2.0834,2.0854,2.09,2.0926,2.0961,2.098,2.1007,2.1033,2.1077,2.1107,2.1129,2.1163,2.1203,2.1236,2.1245,2.1258,2.1256,2.1268,2.1257,2.1257,2.1257,2.125,2.1259,2.1259,2.1277,2.1277,2.1277]}]]